Time,TemperatureF,DewpointF,PressureIn,WindDirection,WindDirectionDegrees,WindSpeedMPH,WindSpeedGustMPH,Humidity,HourlyPrecipIn,Conditions,Clouds,dailyrainin,SoftwareType,DateUTC
2013-07-20 00:03:00,75.9,72.8,29.94,SW,228,0.0,2.0,90,0.00,,,0.00,Wunderground v.1.15,2013-07-20 05:03:00,
2013-07-20 00:08:00,75.8,73.0,29.94,SW,226,1.0,2.0,91,0.00,,,0.00,Wunderground v.1.15,2013-07-20 05:08:00,
2013-07-20 00:14:00,75.8,72.7,29.94,SW,230,0.0,1.0,90,0.00,,,0.00,Wunderground v.1.15,2013-07-20 05:14:00,
2013-07-20 00:20:00,75.7,72.6,29.94,SW,228,0.0,1.0,90,0.00,,,0.00,Wunderground v.1.15,2013-07-20 05:20:00,
2013-07-20 00:25:00,75.7,72.6,29.94,South,191,1.0,1.0,90,0.00,,,0.00,Wunderground v.1.15,2013-07-20 05:25:00,
2013-07-20 00:31:00,75.6,72.5,29.94,SW,226,1.0,1.0,90,0.00,,,0.00,Wunderground v.1.15,2013-07-20 05:31:00,
2013-07-20 00:37:00,75.6,72.5,29.94,SW,226,0.0,3.0,90,0.00,,,0.00,Wunderground v.1.15,2013-07-20 05:37:00,
2013-07-20 00:43:00,75.5,72.4,29.94,SW,222,1.0,1.0,90,0.00,,,0.00,Wunderground v.1.15,2013-07-20 05:43:00,
2013-07-20 00:48:00,75.4,72.3,29.94,SW,229,1.0,1.0,90,0.00,,,0.00,Wunderground v.1.15,2013-07-20 05:48:00,
2013-07-20 00:54:00,75.3,72.2,29.94,SW,233,0.0,1.0,90,0.00,,,0.00,Wunderground v.1.15,2013-07-20 05:54:00,
2013-07-20 01:00:00,75.3,72.2,29.94,SW,236,1.0,1.0,90,0.00,,,0.00,Wunderground v.1.15,2013-07-20 06:00:00,
2013-07-20 01:05:00,75.2,72.1,29.94,SW,218,1.0,1.0,90,0.00,,,0.00,Wunderground v.1.15,2013-07-20 06:05:00,
2013-07-20 01:11:00,75.2,72.1,29.94,WSW,240,0.0,0.0,90,0.00,,,0.00,Wunderground v.1.15,2013-07-20 06:11:00,
2013-07-20 01:17:00,75.2,72.1,29.94,West,274,0.0,1.0,90,0.00,,,0.00,Wunderground v.1.15,2013-07-20 06:17:00,
2013-07-20 01:22:00,75.1,72.0,29.93,SW,219,0.0,2.0,90,0.00,,,0.00,Wunderground v.1.15,2013-07-20 06:22:00,
2013-07-20 01:28:00,75.0,71.9,29.94,SW,224,0.0,2.0,90,0.00,,,0.00,Wunderground v.1.15,2013-07-20 06:28:00,
2013-07-20 01:34:00,74.9,71.8,29.93,SW,224,0.0,1.0,90,0.00,,,0.00,Wunderground v.1.15,2013-07-20 06:34:00,
2013-07-20 01:40:00,74.8,71.7,29.93,WSW,242,0.0,0.0,90,0.00,,,0.00,Wunderground v.1.15,2013-07-20 06:40:00,
2013-07-20 01:45:00,74.7,71.9,29.93,West,263,1.0,1.0,91,0.00,,,0.00,Wunderground v.1.15,2013-07-20 06:45:00,
2013-07-20 01:52:00,74.6,71.8,29.93,West,262,0.0,0.0,91,0.00,,,0.00,Wunderground v.1.15,2013-07-20 06:52:00,
2013-07-20 01:58:00,74.5,71.7,29.93,SW,236,0.0,1.0,91,0.00,,,0.00,Wunderground v.1.15,2013-07-20 06:58:00,
2013-07-20 02:03:00,74.4,71.6,29.93,SW,228,0.0,0.0,91,0.00,,,0.00,Wunderground v.1.15,2013-07-20 07:03:00,
2013-07-20 02:08:00,74.3,71.5,29.93,SW,228,0.0,0.0,91,0.00,,,0.00,Wunderground v.1.15,2013-07-20 07:08:00,
2013-07-20 02:13:00,74.2,71.4,29.92,SW,228,0.0,1.0,91,0.00,,,0.00,Wunderground v.1.15,2013-07-20 07:13:00,
2013-07-20 02:18:00,74.1,71.3,29.92,SW,228,0.0,1.0,91,0.00,,,0.00,Wunderground v.1.15,2013-07-20 07:18:00,
2013-07-20 02:23:00,74.0,71.5,29.92,SW,228,0.0,0.0,92,0.00,,,0.00,Wunderground v.1.15,2013-07-20 07:23:00,
2013-07-20 02:28:00,73.8,71.3,29.92,SW,228,0.0,0.0,92,0.00,,,0.00,Wunderground v.1.15,2013-07-20 07:28:00,
2013-07-20 02:33:00,73.7,71.2,29.92,SW,228,0.0,1.0,92,0.00,,,0.00,Wunderground v.1.15,2013-07-20 07:33:00,
2013-07-20 02:38:00,73.6,71.1,29.92,SW,225,1.0,2.0,92,0.00,,,0.00,Wunderground v.1.15,2013-07-20 07:38:00,
2013-07-20 02:43:00,73.6,71.4,29.92,SSW,210,1.0,2.0,93,0.00,,,0.00,Wunderground v.1.15,2013-07-20 07:43:00,
2013-07-20 02:48:00,73.5,71.4,29.92,SW,222,0.0,2.0,93,0.00,,,0.00,Wunderground v.1.15,2013-07-20 07:48:00,
2013-07-20 02:53:00,73.3,71.2,29.91,SSW,197,0.0,1.0,93,0.00,,,0.00,Wunderground v.1.15,2013-07-20 07:53:00,
2013-07-20 02:58:00,73.2,71.1,29.91,SW,222,0.0,1.0,93,0.00,,,0.00,Wunderground v.1.15,2013-07-20 07:58:00,
2013-07-20 03:03:00,73.2,71.1,29.91,SW,224,0.0,1.0,93,0.00,,,0.00,Wunderground v.1.15,2013-07-20 08:03:00,
2013-07-20 03:08:00,73.1,71.0,29.91,SW,231,1.0,2.0,93,0.00,,,0.00,Wunderground v.1.15,2013-07-20 08:08:00,
2013-07-20 03:13:00,73.1,71.0,29.91,SW,226,0.0,1.0,93,0.00,,,0.00,Wunderground v.1.15,2013-07-20 08:13:00,
2013-07-20 03:18:00,73.1,71.3,29.91,SW,232,1.0,2.0,94,0.00,,,0.00,Wunderground v.1.15,2013-07-20 08:18:00,
2013-07-20 03:23:00,73.0,71.2,29.91,SW,235,1.0,2.0,94,0.00,,,0.00,Wunderground v.1.15,2013-07-20 08:23:00,
2013-07-20 03:28:00,73.0,71.2,29.91,SW,229,0.0,2.0,94,0.00,,,0.00,Wunderground v.1.15,2013-07-20 08:28:00,
2013-07-20 03:33:00,72.9,71.1,29.91,SW,225,1.0,2.0,94,0.00,,,0.00,Wunderground v.1.15,2013-07-20 08:33:00,
2013-07-20 03:38:00,72.9,71.1,29.91,SW,223,2.0,4.0,94,0.00,,,0.00,Wunderground v.1.15,2013-07-20 08:38:00,
2013-07-20 03:43:00,72.8,71.0,29.91,WSW,245,1.0,3.0,94,0.00,,,0.00,Wunderground v.1.15,2013-07-20 08:43:00,
2013-07-20 03:48:00,72.8,71.0,29.91,SW,231,0.0,3.0,94,0.00,,,0.00,Wunderground v.1.15,2013-07-20 08:48:00,
2013-07-20 03:53:00,72.7,70.9,29.91,SW,231,0.0,2.0,94,0.00,,,0.00,Wunderground v.1.15,2013-07-20 08:53:00,
2013-07-20 03:58:00,72.6,70.8,29.91,SW,235,0.0,2.0,94,0.00,,,0.00,Wunderground v.1.15,2013-07-20 08:58:00,
2013-07-20 04:03:00,72.6,70.8,29.91,SW,221,1.0,3.0,94,0.00,,,0.00,Wunderground v.1.15,2013-07-20 09:03:00,
2013-07-20 04:08:00,72.6,70.8,29.91,SW,225,0.0,3.0,94,0.00,,,0.00,Wunderground v.1.15,2013-07-20 09:08:00,
2013-07-20 04:13:00,72.5,70.7,29.92,WSW,238,1.0,2.0,94,0.00,,,0.00,Wunderground v.1.15,2013-07-20 09:13:00,
2013-07-20 04:18:00,72.5,70.7,29.92,SW,219,1.0,3.0,94,0.00,,,0.00,Wunderground v.1.15,2013-07-20 09:18:00,
2013-07-20 04:23:00,72.5,70.7,29.92,SW,228,1.0,2.0,94,0.00,,,0.00,Wunderground v.1.15,2013-07-20 09:23:00,
2013-07-20 04:28:00,72.5,71.0,29.92,SW,228,1.0,3.0,95,0.00,,,0.00,Wunderground v.1.15,2013-07-20 09:28:00,
2013-07-20 04:33:00,72.4,70.9,29.92,SW,231,1.0,2.0,95,0.00,,,0.00,Wunderground v.1.15,2013-07-20 09:33:00,
2013-07-20 04:38:00,72.3,70.8,29.92,SW,231,1.0,2.0,95,0.00,,,0.00,Wunderground v.1.15,2013-07-20 09:38:00,
2013-07-20 04:43:00,72.3,70.8,29.92,WSW,243,0.0,2.0,95,0.00,,,0.00,Wunderground v.1.15,2013-07-20 09:43:00,
2013-07-20 04:48:00,72.2,70.7,29.92,SW,231,1.0,2.0,95,0.00,,,0.00,Wunderground v.1.15,2013-07-20 09:48:00,
2013-07-20 04:53:00,72.3,70.8,29.92,SSW,212,0.0,2.0,95,0.00,,,0.00,Wunderground v.1.15,2013-07-20 09:53:00,
2013-07-20 04:58:00,72.3,70.8,29.92,SW,233,1.0,2.0,95,0.00,,,0.00,Wunderground v.1.15,2013-07-20 09:58:00,
2013-07-20 05:03:00,72.3,70.8,29.92,SW,231,1.0,4.0,95,0.00,,,0.00,Wunderground v.1.15,2013-07-20 10:03:00,
2013-07-20 05:08:00,72.3,70.8,29.92,WSW,238,0.0,4.0,95,0.00,,,0.00,Wunderground v.1.15,2013-07-20 10:08:00,
2013-07-20 05:13:00,72.3,70.8,29.92,SSW,208,0.0,1.0,95,0.00,,,0.00,Wunderground v.1.15,2013-07-20 10:13:00,
2013-07-20 05:18:00,72.3,70.8,29.93,SW,231,3.0,3.0,95,0.00,,,0.00,Wunderground v.1.15,2013-07-20 10:18:00,
2013-07-20 05:23:00,72.3,70.8,29.93,SW,232,0.0,2.0,95,0.00,,,0.00,Wunderground v.1.15,2013-07-20 10:23:00,
2013-07-20 05:28:00,72.2,70.7,29.93,WSW,257,0.0,2.0,95,0.00,,,0.00,Wunderground v.1.15,2013-07-20 10:28:00,
2013-07-20 05:33:00,72.2,70.7,29.93,WSW,238,1.0,2.0,95,0.00,,,0.00,Wunderground v.1.15,2013-07-20 10:33:00,
2013-07-20 05:38:00,72.2,70.7,29.93,SW,228,0.0,2.0,95,0.00,,,0.00,Wunderground v.1.15,2013-07-20 10:38:00,
2013-07-20 05:43:00,72.2,70.7,29.93,SW,232,0.0,2.0,95,0.00,,,0.00,Wunderground v.1.15,2013-07-20 10:43:00,
2013-07-20 05:48:00,72.1,70.6,29.93,West,266,0.0,2.0,95,0.00,,,0.00,Wunderground v.1.15,2013-07-20 10:48:00,
2013-07-20 05:53:00,72.1,70.9,29.93,West,276,1.0,1.0,96,0.00,,,0.00,Wunderground v.1.15,2013-07-20 10:53:00,
2013-07-20 05:59:00,72.1,70.9,29.93,SW,226,0.0,2.0,96,0.00,,,0.00,Wunderground v.1.15,2013-07-20 10:59:00,
2013-07-20 06:04:00,72.1,70.9,29.93,WSW,246,0.0,1.0,96,0.00,,,0.00,Wunderground v.1.15,2013-07-20 11:04:00,
2013-07-20 06:09:00,72.0,70.8,29.93,WSW,247,0.0,1.0,96,0.00,,,0.00,Wunderground v.1.15,2013-07-20 11:09:00,
2013-07-20 06:14:00,72.1,70.9,29.93,SW,227,0.0,1.0,96,0.00,,,0.00,Wunderground v.1.15,2013-07-20 11:14:00,
2013-07-20 06:19:00,72.1,70.9,29.94,WSW,248,0.0,1.0,96,0.00,,,0.00,Wunderground v.1.15,2013-07-20 11:19:00,
2013-07-20 06:24:00,72.2,71.0,29.94,SW,219,1.0,2.0,96,0.00,,,0.00,Wunderground v.1.15,2013-07-20 11:24:00,
2013-07-20 06:29:00,72.4,71.2,29.94,SSW,207,1.0,2.0,96,0.00,,,0.00,Wunderground v.1.15,2013-07-20 11:29:00,
2013-07-20 06:34:00,72.6,71.1,29.94,WSW,248,1.0,2.0,95,0.00,,,0.00,Wunderground v.1.15,2013-07-20 11:34:00,
2013-07-20 06:39:00,72.8,71.3,29.94,SW,222,1.0,2.0,95,0.00,,,0.00,Wunderground v.1.15,2013-07-20 11:39:00,
2013-07-20 06:44:00,73.1,71.6,29.94,WSW,238,1.0,2.0,95,0.00,,,0.00,Wunderground v.1.15,2013-07-20 11:44:00,
2013-07-20 06:49:00,73.3,71.5,29.94,SW,225,1.0,3.0,94,0.00,,,0.00,Wunderground v.1.15,2013-07-20 11:49:00,
2013-07-20 06:54:00,73.6,71.8,29.94,WSW,240,1.0,3.0,94,0.00,,,0.00,Wunderground v.1.15,2013-07-20 11:54:00,
2013-07-20 06:59:00,73.9,71.7,29.94,WSW,248,0.0,3.0,93,0.00,,,0.00,Wunderground v.1.15,2013-07-20 11:59:00,
2013-07-20 07:04:00,74.2,72.0,29.94,WSW,250,1.0,2.0,93,0.00,,,0.00,Wunderground v.1.15,2013-07-20 12:04:00,
2013-07-20 07:09:00,74.4,71.9,29.94,SW,224,1.0,3.0,92,0.00,,,0.00,Wunderground v.1.15,2013-07-20 12:09:00,
2013-07-20 07:14:00,74.7,72.2,29.94,WSW,240,0.0,4.0,92,0.00,,,0.00,Wunderground v.1.15,2013-07-20 12:14:00,
2013-07-20 07:19:00,75.0,72.5,29.94,SW,228,1.0,4.0,92,0.00,,,0.00,Wunderground v.1.15,2013-07-20 12:19:00,
2013-07-20 07:24:00,75.3,72.5,29.94,SW,229,1.0,2.0,91,0.00,,,0.00,Wunderground v.1.15,2013-07-20 12:24:00,
2013-07-20 07:29:00,75.7,72.6,29.94,WSW,242,1.0,4.0,90,0.00,,,0.00,Wunderground v.1.15,2013-07-20 12:29:00,
2013-07-20 07:34:00,76.0,72.9,29.94,WSW,252,0.0,4.0,90,0.00,,,0.00,Wunderground v.1.15,2013-07-20 12:34:00,
2013-07-20 07:39:00,76.3,72.8,29.94,WSW,257,2.0,4.0,89,0.00,,,0.00,Wunderground v.1.15,2013-07-20 12:39:00,
2013-07-20 07:44:00,76.7,73.2,29.94,SW,229,2.0,3.0,89,0.00,,,0.00,Wunderground v.1.15,2013-07-20 12:44:00,
2013-07-20 07:49:00,77.0,73.2,29.93,SW,226,2.0,5.0,88,0.00,,,0.00,Wunderground v.1.15,2013-07-20 12:49:00,
2013-07-20 07:54:00,77.1,72.9,29.93,WSW,240,2.0,4.0,87,0.00,,,0.00,Wunderground v.1.15,2013-07-20 12:54:00,
2013-07-20 07:59:00,77.5,73.3,29.93,West,266,0.0,6.0,87,0.00,,,0.00,Wunderground v.1.15,2013-07-20 12:59:00,
2013-07-20 08:04:00,77.9,73.4,29.93,WSW,255,1.0,5.0,86,0.00,,,0.00,Wunderground v.1.15,2013-07-20 13:04:00,
2013-07-20 08:09:00,78.3,73.8,29.93,SW,236,3.0,6.0,86,0.00,,,0.00,Wunderground v.1.15,2013-07-20 13:09:00,
2013-07-20 08:14:00,78.5,73.6,29.93,West,263,1.0,5.0,85,0.00,,,0.00,Wunderground v.1.15,2013-07-20 13:14:00,
2013-07-20 08:19:00,78.8,73.6,29.93,WSW,248,4.0,5.0,84,0.00,,,0.00,Wunderground v.1.15,2013-07-20 13:19:00,
2013-07-20 08:24:00,79.0,73.4,29.93,SW,228,2.0,6.0,83,0.00,,,0.00,Wunderground v.1.15,2013-07-20 13:24:00,
2013-07-20 08:29:00,79.4,73.8,29.93,SW,226,5.0,7.0,83,0.00,,,0.00,Wunderground v.1.15,2013-07-20 13:29:00,
2013-07-20 08:34:00,79.5,73.5,29.93,West,274,2.0,7.0,82,0.00,,,0.00,Wunderground v.1.15,2013-07-20 13:34:00,
2013-07-20 08:39:00,79.8,73.8,29.93,SW,231,4.0,7.0,82,0.00,,,0.00,Wunderground v.1.15,2013-07-20 13:39:00,
2013-07-20 08:44:00,80.3,74.3,29.93,WSW,240,2.0,4.0,82,0.00,,,0.00,Wunderground v.1.15,2013-07-20 13:44:00,
2013-07-20 08:49:00,80.6,74.2,29.93,WNW,297,2.0,4.0,81,0.00,,,0.00,Wunderground v.1.15,2013-07-20 13:49:00,
2013-07-20 08:54:00,81.0,74.6,29.93,SW,228,3.0,5.0,81,0.00,,,0.00,Wunderground v.1.15,2013-07-20 13:54:00,
2013-07-20 08:59:00,81.4,74.6,29.93,WSW,246,1.0,5.0,80,0.00,,,0.00,Wunderground v.1.15,2013-07-20 13:59:00,
2013-07-20 09:04:00,81.7,74.5,29.93,SW,228,1.0,5.0,79,0.00,,,0.00,Wunderground v.1.15,2013-07-20 14:04:00,
2013-07-20 09:09:00,81.9,75.1,29.93,West,276,4.0,6.0,80,0.00,,,0.00,Wunderground v.1.15,2013-07-20 14:09:00,
2013-07-20 09:14:00,82.1,74.6,29.93,WNW,285,0.0,4.0,78,0.00,,,0.00,Wunderground v.1.15,2013-07-20 14:14:00,
2013-07-20 09:19:00,82.3,74.7,29.93,WSW,257,3.0,7.0,78,0.00,,,0.00,Wunderground v.1.15,2013-07-20 14:19:00,
2013-07-20 09:24:00,82.3,74.4,29.93,WSW,255,5.0,6.0,77,0.00,,,0.00,Wunderground v.1.15,2013-07-20 14:24:00,
2013-07-20 09:29:00,82.5,74.2,29.92,WSW,243,2.0,7.0,76,0.00,,,0.00,Wunderground v.1.15,2013-07-20 14:29:00,
2013-07-20 09:34:00,82.6,74.3,29.92,SW,228,4.0,8.0,76,0.00,,,0.00,Wunderground v.1.15,2013-07-20 14:34:00,
2013-07-20 09:39:00,82.8,74.1,29.93,WSW,257,2.0,8.0,75,0.00,,,0.00,Wunderground v.1.15,2013-07-20 14:39:00,
2013-07-20 09:44:00,83.2,74.8,29.92,West,265,4.0,6.0,76,0.00,,,0.00,Wunderground v.1.15,2013-07-20 14:44:00,
2013-07-20 09:49:00,83.7,74.9,29.92,West,278,6.0,11.0,75,0.00,,,0.00,Wunderground v.1.15,2013-07-20 14:49:00,
2013-07-20 09:54:00,83.5,73.9,29.93,WNW,302,8.0,9.0,73,0.00,,,0.00,Wunderground v.1.15,2013-07-20 14:54:00,
2013-07-20 09:59:00,83.0,73.9,29.93,NW,309,7.0,10.0,74,0.00,,,0.00,Wunderground v.1.15,2013-07-20 14:59:00,
2013-07-20 10:04:00,83.2,74.0,29.93,West,259,3.0,8.0,74,0.00,,,0.00,Wunderground v.1.15,2013-07-20 15:04:00,
2013-07-20 10:09:00,83.7,74.5,29.93,SSW,193,5.0,8.0,74,0.00,,,0.00,Wunderground v.1.15,2013-07-20 15:09:00,
2013-07-20 10:14:00,84.0,74.4,29.93,West,272,3.0,8.0,73,0.00,,,0.00,Wunderground v.1.15,2013-07-20 15:14:00,
2013-07-20 10:19:00,84.2,75.0,29.93,West,263,1.0,12.0,74,0.00,,,0.00,Wunderground v.1.15,2013-07-20 15:19:00,
2013-07-20 10:24:00,84.4,75.6,29.93,WNW,300,6.0,6.0,75,0.00,,,0.00,Wunderground v.1.15,2013-07-20 15:24:00,
2013-07-20 10:29:00,84.7,75.5,29.93,NW,315,4.0,9.0,74,0.00,,,0.00,Wunderground v.1.15,2013-07-20 15:29:00,
2013-07-20 10:34:00,84.7,75.1,29.93,West,281,4.0,8.0,73,0.00,,,0.00,Wunderground v.1.15,2013-07-20 15:34:00,
2013-07-20 10:39:00,84.3,74.7,29.93,NW,307,6.0,8.0,73,0.00,,,0.00,Wunderground v.1.15,2013-07-20 15:39:00,
2013-07-20 10:44:00,84.7,75.1,29.93,South,172,3.0,9.0,73,0.00,,,0.00,Wunderground v.1.15,2013-07-20 15:44:00,
2013-07-20 10:49:00,84.5,74.9,29.93,WSW,243,1.0,9.0,73,0.00,,,0.00,Wunderground v.1.15,2013-07-20 15:49:00,
2013-07-20 10:54:00,84.8,75.2,29.93,WSW,256,3.0,6.0,73,0.00,,,0.00,Wunderground v.1.15,2013-07-20 15:54:00,
2013-07-20 10:59:00,85.3,75.2,29.93,SSW,198,2.0,10.0,72,0.00,,,0.00,Wunderground v.1.15,2013-07-20 15:59:00,
2013-07-20 11:04:00,85.6,74.7,29.93,West,273,4.0,8.0,70,0.00,,,0.00,Wunderground v.1.15,2013-07-20 16:04:00,
2013-07-20 11:09:00,85.4,74.9,29.93,WSW,243,5.0,9.0,71,0.00,,,0.00,Wunderground v.1.15,2013-07-20 16:09:00,
2013-07-20 11:14:00,85.6,75.1,29.93,WSW,257,5.0,12.0,71,0.00,,,0.00,Wunderground v.1.15,2013-07-20 16:14:00,
2013-07-20 11:19:00,85.6,75.1,29.92,NNW,329,4.0,12.0,71,0.00,,,0.00,Wunderground v.1.15,2013-07-20 16:19:00,
2013-07-20 11:24:00,85.9,75.4,29.92,WSW,246,5.0,9.0,71,0.00,,,0.00,Wunderground v.1.15,2013-07-20 16:24:00,
2013-07-20 11:29:00,85.9,74.5,29.92,SW,219,3.0,9.0,69,0.00,,,0.00,Wunderground v.1.15,2013-07-20 16:29:00,
2013-07-20 11:34:00,86.2,74.8,29.92,SW,219,7.0,9.0,69,0.00,,,0.00,Wunderground v.1.15,2013-07-20 16:34:00,
2013-07-20 11:39:00,86.2,74.8,29.92,WSW,244,4.0,4.0,69,0.00,,,0.00,Wunderground v.1.15,2013-07-20 16:39:00,
2013-07-20 11:44:00,86.3,74.9,29.92,South,187,2.0,7.0,69,0.00,,,0.00,Wunderground v.1.15,2013-07-20 16:44:00,
2013-07-20 11:49:00,86.4,75.5,29.92,WSW,246,4.0,4.0,70,0.00,,,0.00,Wunderground v.1.15,2013-07-20 16:49:00,
2013-07-20 11:54:00,86.5,75.5,29.92,West,276,0.0,11.0,70,0.00,,,0.00,Wunderground v.1.15,2013-07-20 16:54:00,
2013-07-20 11:59:00,86.3,74.9,29.92,SSW,211,7.0,7.0,69,0.00,,,0.00,Wunderground v.1.15,2013-07-20 16:59:00,
2013-07-20 12:04:00,86.3,75.4,29.92,SW,214,3.0,9.0,70,0.00,,,0.00,Wunderground v.1.15,2013-07-20 17:04:00,
2013-07-20 12:09:00,86.8,75.0,29.91,SW,226,2.0,4.0,68,0.00,,,0.00,Wunderground v.1.15,2013-07-20 17:09:00,
2013-07-20 12:14:00,87.3,75.0,29.91,WNW,298,3.0,5.0,67,0.00,,,0.00,Wunderground v.1.15,2013-07-20 17:14:00,
2013-07-20 12:19:00,86.6,73.9,29.91,WNW,291,2.0,3.0,66,0.00,,,0.00,Wunderground v.1.15,2013-07-20 17:19:00,
2013-07-20 12:24:00,86.4,75.0,29.91,SSW,207,4.0,9.0,69,0.00,,,0.00,Wunderground v.1.15,2013-07-20 17:24:00,
2013-07-20 12:29:00,86.8,75.0,29.91,WSW,250,3.0,3.0,68,0.00,,,0.00,Wunderground v.1.15,2013-07-20 17:29:00,
2013-07-20 12:34:00,86.9,74.2,29.91,WSW,238,7.0,9.0,66,0.00,,,0.00,Wunderground v.1.15,2013-07-20 17:34:00,
2013-07-20 12:39:00,87.0,74.3,29.91,SW,222,2.0,4.0,66,0.00,,,0.00,Wunderground v.1.15,2013-07-20 17:39:00,
2013-07-20 12:44:00,86.9,75.1,29.91,SSW,202,6.0,10.0,68,0.00,,,0.00,Wunderground v.1.15,2013-07-20 17:44:00,
2013-07-20 12:49:00,86.6,74.3,29.91,WSW,244,2.0,4.0,67,0.00,,,0.00,Wunderground v.1.15,2013-07-20 17:49:00,
2013-07-20 12:55:00,86.2,74.4,29.91,WNW,290,4.0,8.0,68,0.00,,,0.00,Wunderground v.1.15,2013-07-20 17:55:00,
2013-07-20 13:00:00,85.9,74.1,29.91,West,259,3.0,4.0,68,0.00,,,0.00,Wunderground v.1.15,2013-07-20 18:00:00,
2013-07-20 13:05:00,86.2,75.3,29.90,West,278,1.0,6.0,70,0.00,,,0.00,Wunderground v.1.15,2013-07-20 18:05:00,
2013-07-20 13:10:00,86.7,74.9,29.90,West,278,3.0,4.0,68,0.00,,,0.00,Wunderground v.1.15,2013-07-20 18:10:00,
2013-07-20 13:15:00,87.0,75.2,29.90,SW,226,2.0,6.0,68,0.00,,,0.00,Wunderground v.1.15,2013-07-20 18:15:00,
2013-07-20 13:20:00,87.4,74.2,29.90,West,263,3.0,7.0,65,0.00,,,0.00,Wunderground v.1.15,2013-07-20 18:20:00,
2013-07-20 13:25:00,86.9,74.6,29.90,NW,312,6.0,7.0,67,0.00,,,0.00,Wunderground v.1.15,2013-07-20 18:25:00,
2013-07-20 13:30:00,87.0,74.7,29.90,WSW,247,1.0,4.0,67,0.00,,,0.00,Wunderground v.1.15,2013-07-20 18:30:00,
2013-07-20 13:35:00,87.4,74.2,29.90,WNW,288,6.0,9.0,65,0.00,,,0.00,Wunderground v.1.15,2013-07-20 18:35:00,
2013-07-20 13:40:00,87.8,74.6,29.89,West,281,4.0,6.0,65,0.00,,,0.00,Wunderground v.1.15,2013-07-20 18:40:00,
2013-07-20 13:45:00,87.3,74.5,29.90,WNW,302,3.0,8.0,66,0.00,,,0.00,Wunderground v.1.15,2013-07-20 18:45:00,
2013-07-20 13:51:00,87.0,73.8,29.89,West,271,2.0,7.0,65,0.00,,,0.00,Wunderground v.1.15,2013-07-20 18:51:00,
2013-07-20 13:57:00,87.1,74.4,29.89,SW,221,4.0,7.0,66,0.00,,,0.00,Wunderground v.1.15,2013-07-20 18:57:00,
2013-07-20 14:02:00,87.2,74.5,29.89,West,278,1.0,4.0,66,0.00,,,0.00,Wunderground v.1.15,2013-07-20 19:02:00,
2013-07-20 14:07:00,87.2,74.9,29.89,WSW,249,0.0,5.0,67,0.00,,,0.00,Wunderground v.1.15,2013-07-20 19:07:00,
2013-07-20 14:12:00,87.5,74.3,29.88,WNW,293,2.0,5.0,65,0.00,,,0.00,Wunderground v.1.15,2013-07-20 19:12:00,
2013-07-20 14:17:00,87.8,74.6,29.88,SW,226,5.0,5.0,65,0.00,,,0.00,Wunderground v.1.15,2013-07-20 19:17:00,
2013-07-20 14:22:00,88.1,75.8,29.88,SW,222,4.0,5.0,67,0.00,,,0.00,Wunderground v.1.15,2013-07-20 19:22:00,
2013-07-20 14:28:00,88.7,74.5,29.87,SW,219,2.0,8.0,63,0.00,,,0.00,Wunderground v.1.15,2013-07-20 19:28:00,
2013-07-20 14:33:00,88.4,74.2,29.87,SW,236,1.0,6.0,63,0.00,,,0.00,Wunderground v.1.15,2013-07-20 19:33:00,
2013-07-20 14:38:00,89.0,74.3,29.87,West,266,4.0,6.0,62,0.00,,,0.00,Wunderground v.1.15,2013-07-20 19:38:00,
2013-07-20 14:43:00,89.0,75.2,29.87,NW,304,8.0,9.0,64,0.00,,,0.00,Wunderground v.1.15,2013-07-20 19:43:00,
2013-07-20 14:49:00,88.7,74.0,29.87,West,269,5.0,9.0,62,0.00,,,0.00,Wunderground v.1.15,2013-07-20 19:49:00,
2013-07-20 14:54:00,89.0,73.8,29.87,WSW,246,2.0,5.0,61,0.00,,,0.00,Wunderground v.1.15,2013-07-20 19:54:00,
2013-07-20 15:00:00,89.5,74.3,29.87,NW,325,8.0,8.0,61,0.00,,,0.00,Wunderground v.1.15,2013-07-20 20:00:00,
2013-07-20 15:05:00,89.4,74.2,29.86,WNW,297,3.0,11.0,61,0.00,,,0.00,Wunderground v.1.15,2013-07-20 20:05:00,
2013-07-20 15:10:00,89.6,74.4,29.86,WSW,255,2.0,4.0,61,0.00,,,0.00,Wunderground v.1.15,2013-07-20 20:10:00,
2013-07-20 15:15:00,90.1,73.8,29.85,WSW,245,4.0,7.0,59,0.00,,,0.00,Wunderground v.1.15,2013-07-20 20:15:00,
2013-07-20 15:20:00,90.2,73.9,29.85,WSW,248,2.0,5.0,59,0.00,,,0.00,Wunderground v.1.15,2013-07-20 20:20:00,
2013-07-20 15:26:00,90.1,73.8,29.84,West,266,4.0,6.0,59,0.00,,,0.00,Wunderground v.1.15,2013-07-20 20:26:00,
2013-07-20 15:31:00,90.0,73.7,29.84,South,184,2.0,6.0,59,0.00,,,0.00,Wunderground v.1.15,2013-07-20 20:31:00,
2013-07-20 15:36:00,90.1,73.8,29.84,West,277,4.0,11.0,59,0.00,,,0.00,Wunderground v.1.15,2013-07-20 20:36:00,
2013-07-20 15:41:00,90.1,74.3,29.83,WSW,245,4.0,5.0,60,0.00,,,0.00,Wunderground v.1.15,2013-07-20 20:41:00,
2013-07-20 15:46:00,89.9,74.2,29.83,SW,217,4.0,8.0,60,0.00,,,0.00,Wunderground v.1.15,2013-07-20 20:46:00,
2013-07-20 15:51:00,89.4,72.7,29.82,SSW,203,4.0,8.0,58,0.00,,,0.00,Wunderground v.1.15,2013-07-20 20:51:00,
2013-07-20 15:56:00,89.7,72.4,29.82,WNW,295,2.0,8.0,57,0.00,,,0.00,Wunderground v.1.15,2013-07-20 20:56:00,
2013-07-20 16:02:00,90.1,72.8,29.81,West,277,3.0,6.0,57,0.00,,,0.00,Wunderground v.1.15,2013-07-20 21:02:00,
2013-07-20 16:07:00,90.0,72.7,29.81,NW,312,3.0,9.0,57,0.00,,,0.00,Wunderground v.1.15,2013-07-20 21:07:00,
2013-07-20 16:12:00,90.3,74.0,29.81,WSW,253,1.0,5.0,59,0.00,,,0.00,Wunderground v.1.15,2013-07-20 21:12:00,
2013-07-20 16:17:00,90.7,73.9,29.81,West,260,4.0,8.0,58,0.00,,,0.00,Wunderground v.1.15,2013-07-20 21:17:00,
2013-07-20 16:22:00,90.4,73.6,29.81,SSW,204,1.0,9.0,58,0.00,,,0.00,Wunderground v.1.15,2013-07-20 21:22:00,
2013-07-20 16:27:00,90.2,73.9,29.81,West,280,3.0,11.0,59,0.00,,,0.00,Wunderground v.1.15,2013-07-20 21:27:00,
2013-07-20 16:33:00,90.2,73.9,29.81,SW,228,7.0,7.0,59,0.00,,,0.00,Wunderground v.1.15,2013-07-20 21:33:00,
2013-07-20 16:38:00,90.0,72.7,29.81,West,262,4.0,7.0,57,0.00,,,0.00,Wunderground v.1.15,2013-07-20 21:38:00,
2013-07-20 16:43:00,90.0,73.2,29.82,West,265,1.0,8.0,58,0.00,,,0.00,Wunderground v.1.15,2013-07-20 21:43:00,
2013-07-20 16:49:00,90.2,73.4,29.82,WSW,239,3.0,8.0,58,0.00,,,0.00,Wunderground v.1.15,2013-07-20 21:49:00,
2013-07-20 16:54:00,90.4,73.6,29.82,SW,235,2.0,6.0,58,0.00,,,0.00,Wunderground v.1.15,2013-07-20 21:54:00,
2013-07-20 16:59:00,90.5,73.7,29.82,West,262,3.0,6.0,58,0.00,,,0.00,Wunderground v.1.15,2013-07-20 21:59:00,
2013-07-20 17:04:00,90.6,73.8,29.82,WNW,299,2.0,6.0,58,0.00,,,0.00,Wunderground v.1.15,2013-07-20 22:04:00,
2013-07-20 17:09:00,90.5,73.2,29.82,NW,326,0.0,9.0,57,0.00,,,0.00,Wunderground v.1.15,2013-07-20 22:09:00,
2013-07-20 17:14:00,90.1,72.8,29.82,SW,228,4.0,6.0,57,0.00,,,0.00,Wunderground v.1.15,2013-07-20 22:14:00,
2013-07-20 17:19:00,89.9,73.1,29.82,SW,222,2.0,6.0,58,0.00,,,0.00,Wunderground v.1.15,2013-07-20 22:19:00,
2013-07-20 17:24:00,89.9,73.7,29.82,SW,233,1.0,5.0,59,0.00,,,0.00,Wunderground v.1.15,2013-07-20 22:24:00,
2013-07-20 17:29:00,90.2,73.9,29.83,WNW,301,3.0,5.0,59,0.00,,,0.00,Wunderground v.1.15,2013-07-20 22:29:00,
2013-07-20 17:35:00,90.2,73.4,29.83,West,262,5.0,6.0,58,0.00,,,0.00,Wunderground v.1.15,2013-07-20 22:35:00,
2013-07-20 17:40:00,90.2,74.4,29.83,SW,219,3.0,3.0,60,0.00,,,0.00,Wunderground v.1.15,2013-07-20 22:40:00,
2013-07-20 17:45:00,90.1,73.3,29.83,WSW,239,4.0,7.0,58,0.00,,,0.00,Wunderground v.1.15,2013-07-20 22:45:00,
2013-07-20 17:50:00,90.1,74.3,29.84,WNW,298,3.0,3.0,60,0.00,,,0.00,Wunderground v.1.15,2013-07-20 22:50:00,
2013-07-20 17:55:00,89.8,73.0,29.84,SW,224,5.0,5.0,58,0.00,,,0.00,Wunderground v.1.15,2013-07-20 22:55:00,
2013-07-20 18:00:00,89.3,74.1,29.84,NW,309,1.0,2.0,61,0.00,,,0.00,Wunderground v.1.15,2013-07-20 23:00:00,
2013-07-20 18:06:00,89.1,73.9,29.85,WNW,291,2.0,6.0,61,0.00,,,0.00,Wunderground v.1.15,2013-07-20 23:06:00,
2013-07-20 18:12:00,88.7,73.5,29.86,NW,305,2.0,4.0,61,0.00,,,0.00,Wunderground v.1.15,2013-07-20 23:12:00,
2013-07-20 18:17:00,88.3,73.1,29.86,WNW,295,1.0,4.0,61,0.00,,,0.00,Wunderground v.1.15,2013-07-20 23:17:00,
2013-07-20 18:22:00,87.8,73.6,29.86,WNW,300,0.0,3.0,63,0.00,,,0.00,Wunderground v.1.15,2013-07-20 23:22:00,
2013-07-20 18:27:00,87.6,73.4,29.86,West,259,1.0,3.0,63,0.00,,,0.00,Wunderground v.1.15,2013-07-20 23:27:00,
2013-07-20 18:33:00,87.7,74.0,29.86,WSW,248,0.0,1.0,64,0.00,,,0.00,Wunderground v.1.15,2013-07-20 23:33:00,
2013-07-20 18:38:00,87.8,74.1,29.86,West,260,0.0,1.0,64,0.00,,,0.00,Wunderground v.1.15,2013-07-20 23:38:00,
2013-07-20 18:43:00,87.9,74.7,29.86,WSW,257,0.0,0.0,65,0.00,,,0.00,Wunderground v.1.15,2013-07-20 23:43:00,
2013-07-20 18:48:00,87.6,73.9,29.86,WSW,243,0.0,1.0,64,0.00,,,0.00,Wunderground v.1.15,2013-07-20 23:48:00,
2013-07-20 18:53:00,87.3,74.5,29.86,WSW,249,0.0,1.0,66,0.00,,,0.00,Wunderground v.1.15,2013-07-20 23:53:00,
2013-07-20 18:59:00,87.0,74.3,29.86,SW,229,0.0,1.0,66,0.00,,,0.00,Wunderground v.1.15,2013-07-20 23:59:00,
2013-07-20 19:04:00,86.9,75.1,29.87,SW,229,0.0,0.0,68,0.00,,,0.00,Wunderground v.1.15,2013-07-21 00:04:00,
2013-07-20 19:09:00,86.7,74.9,29.87,SW,229,0.0,0.0,68,0.00,,,0.00,Wunderground v.1.15,2013-07-21 00:09:00,
2013-07-20 19:14:00,86.4,74.6,29.87,SW,229,0.0,0.0,68,0.00,,,0.00,Wunderground v.1.15,2013-07-21 00:14:00,
2013-07-20 19:19:00,86.4,75.9,29.87,SW,229,0.0,0.0,71,0.00,,,0.00,Wunderground v.1.15,2013-07-21 00:19:00,
2013-07-20 19:24:00,86.0,75.9,29.86,SW,229,0.0,0.0,72,0.00,,,0.00,Wunderground v.1.15,2013-07-21 00:24:00,
2013-07-20 19:29:00,85.5,75.9,29.86,SW,229,0.0,0.0,73,0.00,,,0.00,Wunderground v.1.15,2013-07-21 00:29:00,
2013-07-20 19:34:00,84.9,75.7,29.86,SW,229,0.0,0.0,74,0.00,,,0.00,Wunderground v.1.15,2013-07-21 00:34:00,
2013-07-20 19:39:00,84.5,75.7,29.87,SW,229,0.0,0.0,75,0.00,,,0.00,Wunderground v.1.15,2013-07-21 00:39:00,
2013-07-20 19:45:00,84.0,75.6,29.87,SW,229,0.0,0.0,76,0.00,,,0.00,Wunderground v.1.15,2013-07-21 00:45:00,
2013-07-20 19:50:00,83.7,75.7,29.88,SW,229,0.0,0.0,77,0.00,,,0.00,Wunderground v.1.15,2013-07-21 00:50:00,
2013-07-20 19:55:00,83.2,75.6,29.88,SW,229,0.0,0.0,78,0.00,,,0.00,Wunderground v.1.15,2013-07-21 00:55:00,
2013-07-20 20:00:00,82.8,75.2,29.88,SW,229,0.0,0.0,78,0.00,,,0.00,Wunderground v.1.15,2013-07-21 01:00:00,
2013-07-20 20:05:00,82.5,75.3,29.88,SW,229,0.0,0.0,79,0.00,,,0.00,Wunderground v.1.15,2013-07-21 01:05:00,
2013-07-20 20:10:00,82.0,74.8,29.88,SW,229,0.0,0.0,79,0.00,,,0.00,Wunderground v.1.15,2013-07-21 01:10:00,
2013-07-20 20:15:00,81.6,74.5,29.88,SW,219,0.0,1.0,79,0.00,,,0.00,Wunderground v.1.15,2013-07-21 01:15:00,
2013-07-20 20:21:00,81.3,74.5,29.88,SW,219,0.0,0.0,80,0.00,,,0.00,Wunderground v.1.15,2013-07-21 01:21:00,
2013-07-20 20:26:00,81.1,74.7,29.88,SW,219,0.0,0.0,81,0.00,,,0.00,Wunderground v.1.15,2013-07-21 01:26:00,
2013-07-20 20:31:00,80.8,74.4,29.88,East,87,1.0,1.0,81,0.00,,,0.00,Wunderground v.1.15,2013-07-21 01:31:00,
2013-07-20 20:36:00,80.6,75.0,29.88,ENE,63,2.0,2.0,83,0.00,,,0.00,Wunderground v.1.15,2013-07-21 01:36:00,
2013-07-20 20:42:00,80.1,73.7,29.89,NNW,347,3.0,9.0,81,0.00,,,0.00,Wunderground v.1.15,2013-07-21 01:42:00,
2013-07-20 20:47:00,79.5,71.7,29.90,East,86,5.0,9.0,77,0.00,,,0.00,Wunderground v.1.15,2013-07-21 01:47:00,
2013-07-20 20:52:00,78.8,70.2,29.90,East,81,6.0,11.0,75,0.00,,,0.00,Wunderground v.1.15,2013-07-21 01:52:00,
2013-07-20 20:57:00,78.3,70.1,29.91,ENE,76,5.0,11.0,76,0.00,,,0.00,Wunderground v.1.15,2013-07-21 01:57:00,
2013-07-20 21:03:00,77.9,69.7,29.91,ESE,115,1.0,9.0,76,0.00,,,0.00,Wunderground v.1.15,2013-07-21 02:03:00,
2013-07-20 21:08:00,77.7,69.1,29.91,NE,48,2.0,9.0,75,0.00,,,0.00,Wunderground v.1.15,2013-07-21 02:08:00,
2013-07-20 21:13:00,77.6,69.4,29.92,NE,41,4.0,5.0,76,0.00,,,0.00,Wunderground v.1.15,2013-07-21 02:13:00,
2013-07-20 21:18:00,77.2,69.0,29.92,ENE,57,10.0,14.0,76,0.00,,,0.00,Wunderground v.1.15,2013-07-21 02:18:00,
2013-07-20 21:24:00,76.4,68.7,29.93,East,92,7.0,7.0,77,0.00,,,0.00,Wunderground v.1.15,2013-07-21 02:24:00,
2013-07-20 21:29:00,76.0,68.6,29.93,East,98,1.0,7.0,78,0.00,,,0.00,Wunderground v.1.15,2013-07-21 02:29:00,
2013-07-20 21:34:00,75.9,68.5,29.93,East,101,1.0,4.0,78,0.00,,,0.00,Wunderground v.1.15,2013-07-21 02:34:00,
2013-07-20 21:40:00,75.9,68.5,29.93,East,100,2.0,2.0,78,0.00,,,0.00,Wunderground v.1.15,2013-07-21 02:40:00,
2013-07-20 21:46:00,75.5,68.9,29.94,East,101,0.0,3.0,80,0.43,,,0.02,Wunderground v.1.15,2013-07-21 02:46:00,
2013-07-20 21:51:00,75.1,69.6,29.94,East,94,0.0,1.0,83,0.21,,,0.04,Wunderground v.1.15,2013-07-21 02:51:00,
2013-07-20 21:57:00,74.6,69.4,29.95,ENE,62,2.0,4.0,84,0.07,,,0.04,Wunderground v.1.15,2013-07-21 02:57:00,
2013-07-20 22:02:00,74.1,69.6,29.95,ESE,110,1.0,2.0,86,0.05,,,0.05,Wunderground v.1.15,2013-07-21 03:02:00,
2013-07-20 22:07:00,73.5,69.4,29.95,East,90,2.0,4.0,87,0.30,,,0.07,Wunderground v.1.15,2013-07-21 03:07:00,
2013-07-20 22:12:00,73.0,69.6,29.95,ESE,105,0.0,1.0,89,0.14,,,0.08,Wunderground v.1.15,2013-07-21 03:12:00,
2013-07-20 22:17:00,72.6,69.5,29.96,NW,304,2.0,2.0,90,0.08,,,0.08,Wunderground v.1.15,2013-07-21 03:17:00,
2013-07-20 22:22:00,72.3,69.5,29.96,WSW,240,4.0,4.0,91,0.05,,,0.08,Wunderground v.1.15,2013-07-21 03:22:00,
2013-07-20 22:27:00,71.9,69.4,29.96,WSW,248,0.0,4.0,92,0.00,,,0.08,Wunderground v.1.15,2013-07-21 03:27:00,
2013-07-20 22:33:00,71.9,69.8,29.95,NE,47,0.0,1.0,93,0.00,,,0.08,Wunderground v.1.15,2013-07-21 03:33:00,
2013-07-20 22:38:00,71.8,69.7,29.94,NE,43,0.0,5.0,93,0.00,,,0.08,Wunderground v.1.15,2013-07-21 03:38:00,
2013-07-20 22:44:00,71.8,69.7,29.94,SE,129,0.0,3.0,93,0.00,,,0.08,Wunderground v.1.15,2013-07-21 03:44:00,
2013-07-20 22:49:00,71.8,69.7,29.94,ENE,62,1.0,3.0,93,0.00,,,0.08,Wunderground v.1.15,2013-07-21 03:49:00,
2013-07-20 22:54:00,71.9,69.8,29.93,SE,133,1.0,3.0,93,0.00,,,0.08,Wunderground v.1.15,2013-07-21 03:54:00,
2013-07-20 22:59:00,71.8,69.7,29.94,SSE,162,0.0,3.0,93,0.00,,,0.08,Wunderground v.1.15,2013-07-21 03:59:00,
2013-07-20 23:01:00,71.8,69.7,29.93,South,188,0.0,1.0,93,0.00,,,0.08,Wunderground v.1.15,2013-07-21 04:01:00,
2013-07-20 23:06:00,71.7,69.9,29.92,SE,127,2.0,3.0,94,0.00,,,0.08,Wunderground v.1.15,2013-07-21 04:06:00,
2013-07-20 23:11:00,71.7,69.6,29.92,SE,132,3.0,3.0,93,0.00,,,0.08,Wunderground v.1.15,2013-07-21 04:11:00,
2013-07-20 23:16:00,71.7,69.6,29.92,SSE,149,0.0,3.0,93,0.00,,,0.08,Wunderground v.1.15,2013-07-21 04:16:00,
2013-07-20 23:22:00,71.6,69.5,29.92,South,189,1.0,1.0,93,0.00,,,0.08,Wunderground v.1.15,2013-07-21 04:22:00,
2013-07-20 23:27:00,71.4,69.3,29.92,South,191,0.0,1.0,93,0.00,,,0.08,Wunderground v.1.15,2013-07-21 04:27:00,
2013-07-20 23:32:00,71.2,69.4,29.92,South,190,0.0,0.0,94,0.00,,,0.08,Wunderground v.1.15,2013-07-21 04:32:00,
2013-07-20 23:37:00,71.1,69.3,29.92,SW,236,1.0,3.0,94,0.00,,,0.08,Wunderground v.1.15,2013-07-21 04:37:00,
2013-07-20 23:42:00,71.0,69.2,29.92,SW,226,2.0,4.0,94,0.00,,,0.08,Wunderground v.1.15,2013-07-21 04:42:00,
2013-07-20 23:47:00,70.9,69.1,29.92,SW,225,1.0,4.0,94,0.00,,,0.08,Wunderground v.1.15,2013-07-21 04:47:00,
2013-07-20 23:52:00,70.7,68.9,29.92,WSW,238,2.0,4.0,94,0.00,,,0.08,Wunderground v.1.15,2013-07-21 04:52:00,
2013-07-20 23:57:00,70.6,69.1,29.91,SW,225,2.0,4.0,95,0.00,,,0.08,Wunderground v.1.15,2013-07-21 04:57:00,